[[{"header":{"parameterUnit":"m.s-1","parameterCategory":1,"la1":30.2991,"la2":30.254,"lo1":-89.0895,"lo2":-89.0444,"dy":0.0017,"dx":0.0017,"nx":28,"ny":28,"refTime":"2025-07-19T03:00:00:Z","depth":0,"parameterNumber":2,"parameterNumberName":"U-component_of_WINDS"},"data":[0,0,0,0,0,0,0,0,0,0,0,0,0,0,0,0,0,0,0,0,0,0,0,0,0,0,0,0,0,0,0,0,0,0,0,0,0,0,0,0,0,0,0,0,0,0,0,0,0,0,0,0,0,0,0,0,0,0,2.6721,2.6721,0,2.668,2.668,2.6679,2.6598,2.6596,2.6594,2.6593,2.655,2.6551,2.6551,0,0,0,0,0,0,0,0,0,0,0,0,0,2.6727,2.6727,2.6721,2.6721,2.672,2.668,2.668,2.6679,2.6598,2.6596,2.6594,2.6592,2.655,2.6551,2.6551,0,0,0,0,0,0,0,0,0,0,0,0,0,2.6709,2.6727,2.6721,2.6675,2.667,2.668,2.668,2.6679,2.6598,2.6596,2.6594,2.6591,2.655,2.655,2.6551,2.6603,0,0,2.6553,2.6553,0,0,0,0,0,0,0,0,2.671,2.6709,2.6682,2.6678,2.6673,2.6642,2.6666,2.6653,2.6599,2.6626,2.6593,2.659,2.6583,2.658,2.6578,2.6601,2.6599,2.6553,2.6553,2.6553,2.6553,0,0,0,0,0,0,0,2.6711,2.671,2.6705,2.6682,2.6676,2.6655,2.665,2.6663,2.6618,2.6623,2.6617,2.6614,2.658,2.6577,2.6576,2.6598,2.6553,2.6553,2.6553,2.6554,2.6656,2.6658,0,0,0,0,0,0,2.672,2.6712,2.6706,2.6704,2.6686,2.6657,2.6651,2.6654,2.6618,2.661,2.6616,2.661,2.6578,2.6576,2.6574,2.6628,2.6553,2.6554,2.6554,2.6653,2.6656,2.6659,0,0,0,0,0,0,2.672,2.672,2.6708,2.6706,2.6703,2.666,2.6663,2.6655,2.6652,2.6612,2.6603,2.6622,2.6576,2.6574,2.6595,2.6626,2.6554,2.6554,2.6651,2.6654,2.6658,2.674,0,0,0,0,0,0,2.672,2.6721,2.6741,2.6707,2.6703,2.6731,2.6665,2.6656,2.6654,2.6646,2.6616,2.6608,2.6574,2.6595,2.6596,2.6625,2.6555,2.6648,2.6652,2.6656,2.6734,2.6745,2.6755,0,0,0,0,0,2.6721,2.6766,2.6742,2.6742,2.6728,2.6733,2.673,2.669,2.6657,2.6675,2.6649,2.6609,2.6623,2.6598,2.6598,2.6628,2.6645,2.6651,2.6656,2.6729,2.6743,2.6755,0,0,0,0,0,0,2.6805,2.6761,2.6734,2.677,2.6755,2.6719,2.6742,2.6707,2.6702,2.6694,2.6644,2.6638,2.6665,2.6649,2.6622,2.6674,2.6628,2.6633,2.6683,2.6696,2.6707,2.6709,2.6555,0,0,0,0,0,2.6828,2.6836,2.6797,2.6833,2.6827,2.6786,2.6786,2.6756,2.6739,2.6733,2.6708,2.6692,2.6692,2.6694,2.6692,2.6732,2.6722,2.6753,2.6763,2.6772,2.6777,2.6792,2.6804,2.6677,2.6677,2.6676,0,0,2.6875,2.6852,2.6861,2.6849,2.6834,2.6842,2.6781,2.6793,2.6798,2.6734,2.6752,2.6733,2.6712,2.6742,2.6754,2.6729,2.681,2.6779,2.6787,2.6786,2.6799,2.6811,2.6822,2.668,2.668,2.6679,0,0,2.6964,2.6949,2.6975,2.6961,2.6939,2.6911,2.6917,2.6885,2.687,2.6887,2.6838,2.6842,2.6845,2.6831,2.6824,2.6905,2.6866,2.6906,2.6961,2.6977,2.6987,2.6995,2.702,2.703,2.6911,2.6911,2.6911,0,2.7025,2.7036,2.6993,2.7006,2.7001,2.6943,2.6967,2.6956,2.6935,2.6932,2.6905,2.6905,2.6887,2.691,2.6929,2.6927,2.693,2.6908,2.6989,2.6997,2.7004,2.7027,2.7037,2.6916,2.6915,2.6915,2.6914,0,2.711,2.7118,2.7141,2.7121,2.7118,2.7138,2.7095,2.7098,2.7068,2.7042,2.7058,2.7034,2.7025,2.7029,2.7,2.7047,2.7032,2.6998,2.695,2.7022,2.7042,2.7051,2.6923,2.6921,2.6919,2.6918,0,0,2.7251,2.7204,2.7213,2.7201,2.7172,2.7176,2.7192,2.7182,2.7183,2.7171,2.718,2.7183,2.715,2.7142,2.7111,2.7125,2.7185,2.7089,2.7087,2.7104,2.723,2.7253,2.7265,2.7161,2.7162,2.7164,2.7231,0,2.733,2.7354,2.7314,2.7346,2.735,2.7295,2.7307,2.729,2.7266,2.7265,2.7238,2.7239,2.7198,2.7192,2.7204,2.7175,2.7209,2.717,2.7166,2.7166,2.717,2.7276,2.7301,2.7366,2.7239,2.724,2.7241,0,2.7426,2.7416,2.7449,2.7413,2.7414,2.7426,2.7412,2.7413,2.7391,2.7372,2.7362,2.7325,2.7335,2.7291,2.7302,2.7277,2.7273,2.7258,2.726,2.7255,2.7206,2.7271,2.7386,2.7394,2.7254,2.7253,2.7252,0,2.752,2.7516,2.7533,2.7525,2.7486,2.7495,2.7479,2.7454,2.745,2.7438,2.7433,2.7423,2.7417,2.7409,2.7368,2.7341,2.7383,2.7337,2.7365,2.7366,2.7375,2.7374,2.7487,2.7378,2.7378,2.7378,2.7378,0,2.7612,2.7633,2.7574,2.7585,2.7605,2.7559,2.758,2.7559,2.7537,2.754,2.7493,2.7497,2.7445,2.7443,2.7412,2.7424,2.7423,2.7406,2.7397,2.7408,2.741,2.7403,2.7396,2.7381,2.738,2.738,2.7379,0,2.7719,2.7682,2.7696,2.7657,2.7648,2.7664,2.763,2.7637,2.7609,2.7614,2.7613,2.7569,2.7564,2.7524,2.751,2.7489,2.7511,2.7495,2.7519,2.7512,2.7541,2.7538,2.7651,2.7662,2.755,2.7551,2.7552,0,2.7778,2.7793,2.7755,2.7753,2.7739,2.7739,2.7733,2.7687,2.7683,2.7657,2.7666,2.7657,2.7647,2.7642,2.7608,2.7596,2.7577,2.7618,2.7575,2.7585,2.7573,2.7571,2.7571,2.7626,2.7627,2.7629,2.763,0,2.7886,2.7865,2.7859,2.7846,2.7841,2.7828,2.7813,2.7814,2.7763,2.7761,2.7755,2.7747,2.7732,2.7722,2.7704,2.7686,2.7648,2.7644,2.7649,2.7659,2.767,2.766,2.7539,2.7641,2.7639,2.7639,2.7638,2.7638,2.7968,2.7976,2.795,2.7944,2.7927,2.7913,2.7916,2.7888,2.7882,2.7866,2.7839,2.7836,2.781,2.7782,2.7767,2.7762,2.774,2.7749,2.7751,2.7753,2.7757,2.7674,2.7759,2.7759,2.7758,2.7758,2.7758,0,2.8069,2.8049,2.8044,2.8022,2.8017,2.7983,2.7963,2.796,2.7958,2.7937,2.7927,2.7918,2.7908,2.7873,2.7859,2.7862,2.7844,2.7859,2.7857,2.7852,2.7779,2.7774,2.7873,2.7873,2.7873,2.7873,2.7873,2.7873,2.8121,2.8132,2.8108,2.811,2.8089,2.8085,2.8076,2.8062,2.8044,2.8036,2.8027,2.8005,2.7977,2.796,2.7948,2.7938,2.7933,2.7953,2.7937,2.7869,2.7858,2.7847,2.7842,2.7954,2.7954,2.8009,2.801,2.801]},{"header":{"parameterUnit":"m.s-1","parameterCategory":1,"la1":30.2991,"la2":30.254,"lo1":-89.0895,"lo2":-89.0444,"dy":0.0017,"dx":0.0017,"nx":28,"ny":28,"refTime":"2025-07-19T03:00:00:Z","depth":0,"parameterNumber":3,"parameterNumberName":"V-component_of_WINDS"},"data":[0,0,0,0,0,0,0,0,0,0,0,0,0,0,0,0,0,0,0,0,0,0,0,0,0,0,0,0,0,0,0,0,0,0,0,0,0,0,0,0,0,0,0,0,0,0,0,0,0,0,0,0,0,0,0,0,0,0,4.7168,4.717,0,4.7316,4.7317,4.7319,4.7316,4.7314,4.7312,4.731,4.7456,4.7462,4.7468,0,0,0,0,0,0,0,0,0,0,0,0,0,4.6878,4.6884,4.7168,4.717,4.7172,4.7315,4.7318,4.732,4.7316,4.7314,4.7311,4.7309,4.7455,4.7461,4.7468,0,0,0,0,0,0,0,0,0,0,0,0,0,4.7013,4.6885,4.7168,4.7188,4.7191,4.7315,4.7318,4.732,4.7317,4.7314,4.7311,4.7308,4.7452,4.7461,4.7469,4.7582,0,0,4.7496,4.7499,0,0,0,0,0,0,0,0,4.7005,4.7023,4.7183,4.7187,4.719,4.7294,4.7269,4.7408,4.7317,4.7269,4.731,4.7306,4.7405,4.7417,4.7451,4.7589,4.7595,4.7496,4.7502,4.7505,4.7508,0,0,0,0,0,0,0,4.6996,4.7017,4.7226,4.7185,4.719,4.7187,4.7203,4.7295,4.7351,4.7273,4.7273,4.7291,4.7406,4.7443,4.7454,4.7597,4.7496,4.7504,4.7509,4.7512,4.7832,4.7835,0,0,0,0,0,0,4.6983,4.7009,4.7222,4.7231,4.7089,4.7195,4.7213,4.7264,4.7351,4.7361,4.7293,4.729,4.7429,4.7444,4.746,4.7595,4.7505,4.7513,4.7518,4.7829,4.7833,4.7836,0,0,0,0,0,0,4.6977,4.7002,4.7216,4.712,4.7147,4.7203,4.7261,4.7268,4.7305,4.7366,4.7375,4.7321,4.7428,4.7447,4.7551,4.7601,4.7517,4.7525,4.7825,4.783,4.7834,4.7869,0,0,0,0,0,0,4.6969,4.7,4.7045,4.7121,4.7152,4.7307,4.7264,4.7274,4.7321,4.7318,4.7394,4.7404,4.7427,4.7538,4.756,4.7611,4.7532,4.7821,4.7827,4.7833,4.7864,4.7875,4.7884,0,0,0,0,0,4.6958,4.7048,4.7047,4.7073,4.721,4.731,4.7327,4.7353,4.7325,4.7369,4.7408,4.7401,4.7592,4.7549,4.7573,4.7628,4.7817,4.7825,4.7832,4.7859,4.7873,4.7884,0,0,0,0,0,0,4.6975,4.7059,4.7058,4.7176,4.7236,4.7309,4.7366,4.7367,4.7435,4.743,4.7457,4.7475,4.7578,4.7613,4.7564,4.774,4.7701,4.7713,4.7713,4.7726,4.7736,4.7725,4.7539,0,0,0,0,0,4.6993,4.7069,4.7137,4.7234,4.7264,4.731,4.7355,4.7369,4.7432,4.7457,4.7503,4.7562,4.7635,4.7683,4.7754,4.7869,4.7884,4.7918,4.7928,4.7936,4.7946,4.8008,4.8023,4.7861,4.7861,4.7861,0,0,4.703,4.7085,4.7131,4.7239,4.7287,4.7363,4.7332,4.7414,4.7469,4.7469,4.7569,4.7605,4.7673,4.7783,4.7833,4.7815,4.7994,4.7946,4.7952,4.7958,4.8017,4.8032,4.8046,4.7866,4.7865,4.7864,0,0,4.7135,4.7186,4.7271,4.732,4.7394,4.7423,4.7443,4.7517,4.754,4.7642,4.7643,4.7708,4.7834,4.7882,4.7923,4.8045,4.804,4.8067,4.8119,4.8178,4.8191,4.8202,4.8244,4.8258,4.8077,4.8077,4.8077,0,4.7172,4.7288,4.7315,4.7397,4.7444,4.7448,4.7533,4.7578,4.767,4.7701,4.768,4.7837,4.7883,4.8003,4.8032,4.8066,4.8088,4.8058,4.8187,4.8199,4.821,4.825,4.8265,4.808,4.8079,4.8079,4.8079,0,4.7327,4.7407,4.7467,4.7557,4.761,4.7694,4.7731,4.7782,4.7791,4.7822,4.7924,4.798,4.8061,4.809,4.8101,4.8211,4.8197,4.8182,4.8143,4.8228,4.8265,4.8281,4.8083,4.8082,4.8082,4.8081,0,0,4.7448,4.7551,4.7573,4.7612,4.7693,4.7754,4.7836,4.7917,4.7958,4.8021,4.8089,4.8195,4.818,4.8226,4.8242,4.8294,4.8384,4.8272,4.8273,4.8289,4.8506,4.8516,4.8534,4.8382,4.8385,4.8388,4.85,0,4.7561,4.7709,4.7735,4.7863,4.7936,4.794,4.8011,4.8067,4.8098,4.8162,4.8196,4.8269,4.8246,4.8273,4.8325,4.8362,4.8428,4.8355,4.8443,4.8446,4.8425,4.8554,4.8566,4.8669,4.8515,4.8517,4.8519,0,4.7712,4.778,4.7916,4.7984,4.8016,4.808,4.8154,4.8217,4.8279,4.8297,4.8348,4.8357,4.844,4.8398,4.8512,4.8461,4.8499,4.8522,4.8527,4.8535,4.8487,4.8564,4.8703,4.8717,4.8543,4.8541,4.854,0,4.7784,4.7909,4.8006,4.804,4.8123,4.8167,4.8204,4.8264,4.8309,4.8374,4.8403,4.8476,4.8516,4.8571,4.8598,4.8565,4.8709,4.867,4.8724,4.8724,4.8754,4.8751,4.8899,4.8781,4.878,4.878,4.878,0,4.7907,4.7989,4.8039,4.8098,4.819,4.8218,4.8307,4.8342,4.8395,4.846,4.8467,4.8527,4.856,4.8625,4.8646,4.8736,4.8754,4.8769,4.8774,4.8768,4.8766,4.8792,4.8785,4.8784,4.8783,4.8783,4.8782,0,4.8002,4.804,4.8145,4.8215,4.8234,4.8298,4.8357,4.8414,4.8444,4.8525,4.8546,4.8593,4.8669,4.8702,4.8795,4.8809,4.8911,4.8911,4.889,4.8891,4.8943,4.8937,4.9112,4.9135,4.9003,4.9004,4.9005,0,4.8077,4.8141,4.8217,4.8262,4.83,4.8371,4.8418,4.8447,4.8495,4.857,4.8617,4.8693,4.8756,4.8876,4.8917,4.8988,4.8989,4.9045,4.8999,4.8991,4.8987,4.8982,4.8988,4.9053,4.9054,4.9055,4.9056,0,4.8206,4.822,4.8288,4.8362,4.8418,4.8478,4.8535,4.8571,4.8609,4.8662,4.874,4.8789,4.8884,4.8958,4.9031,4.9066,4.9067,4.907,4.9086,4.908,4.9065,4.9072,4.8911,4.9066,4.9065,4.9064,4.9064,4.9063,4.8292,4.8348,4.841,4.8485,4.8531,4.8585,4.8641,4.8678,4.8744,4.8825,4.8838,4.892,4.8979,4.9077,4.9115,4.9178,4.9164,4.9188,4.9194,4.9199,4.9201,4.9056,4.9192,4.9192,4.9191,4.9191,4.9191,0,4.8419,4.8459,4.8528,4.8608,4.8666,4.8663,4.8727,4.8775,4.8848,4.8903,4.8965,4.9053,4.9125,4.9172,4.9244,4.9286,4.9287,4.9303,4.93,4.9307,4.9211,4.9189,4.9301,4.9301,4.9301,4.93,4.93,4.93,4.8492,4.8585,4.8607,4.8723,4.8762,4.8844,4.888,4.8928,4.8972,4.9071,4.9132,4.9162,4.9213,4.9289,4.9354,4.9365,4.939,4.9407,4.9418,4.9326,4.9314,4.9304,4.9283,4.9413,4.9413,4.9509,4.951,4.951]}]]